Pila San Vigilio, Italy 16 day weather forecast

Slopes altitude range 1200 m - 2750m

Number of lifts: 12 Pistes: 70km

In some cases the lift and piste totals shown are for the ski domain (e.g. Three Valleys) rather than individual resort (e.g. Courchevel)

Overview

The 16 day weather forecast is fully updated 4 times every day.

    • Sun 26 MAY 2019
    • Sun 26
    • 2C 6C
    • Mon 27 MAY 2019
    • Mon 27
    • 4C 6C
    • Tue 28 MAY 2019
    • Tue 28
    • 4C 6C
    • Wed 29 MAY 2019
    • Wed 29
    • 0C 4C
    • Thu 30 MAY 2019
    • Thu 30
    • 2C 8C
    • Fri 31 MAY 2019
    • Fri 31
    • 5C 10C
    • Sat 01 JUN 2019
    • Sat 01
    • 6C 10C
    • Sun 02 JUN 2019
    • Sun 02
    • 6C 13C
    • Mon 03 JUN 2019
    • Mon 03
    • 7C 13C
    • Tue 04 JUN 2019
    • Tue 04
    • 8C 14C
    • Wed 05 JUN 2019
    • Wed 05
    • 11C 18C
    • Thu 06 JUN 2019
    • Thu 06
    • 10C 12C
    • Fri 07 JUN 2019
    • Fri 07
    • 10C 13C
    • Sat 08 JUN 2019
    • Sat 08
    • 9C 12C
    • Sun 09 JUN 2019
    • Sun 09
    • 10C 16C
    • Mon 10 JUN 2019
    • Mon 10
    • 10C 15C

Date:

Time Type 0°C level Temp Chill Snow Cloud Speed Gust Dir Press
12:00 2970m 6°C 6_6 0cm 84% 6mph 7mph 1015mB
15:00 3063m 6°C 6_4 0cm 93% 4mph 6mph 1014mB
18:00 3110m 6°C 6_2 0cm 94% 2mph 3mph 1014mB
21:00 3063m 3°C 3_2 0cm 99% 2mph 2mph 1015mB
0:00 3096m 3°C 3_4 0cm 97% 4mph 4mph 1014mB
3:00 3002m 2°C 2_3 0cm 95% 3mph 3mph 1013mB
6:00 2984m 2°C 2_2 0cm 94% 2mph 2mph 1012mB
9:00 3070m 4°C 4_4 0cm 97% 4mph 4mph 1011mB
12:00 3203m 6°C 6_2 0cm 98% 2mph 3mph 1010mB
15:00 3198m 6°C 6_2 0cm 100% 2mph 4mph 1009mB
18:00 3153m 6°C 6_1 0cm 99% 1mph 1mph 1009mB
21:00 3177m 4°C 4_6 0cm 100% 6mph 6mph 1010mB
0:00 3092m 3°C 3_7 0cm 99% 7mph 7mph 1009mB
3:00 2932m 2°C 2_8 0cm 100% 8mph 8mph 1007mB
6:00 2882m 2°C 2_7 0cm 100% 7mph 8mph 1007mB
9:00 2855m 4°C 4_5 0cm 99% 5mph 5mph 1008mB
12:00 2797m 6°C 6_5 2cm 99% 5mph 7mph 1007mB
15:00 2810m 5°C 5_5 4cm 98% 5mph 6mph 1007mB
18:00 2540m 5°C 5_7 9cm 99% 7mph 8mph 1008mB
21:00 2273m 0°C 0_10 3cm 100% 10mph 12mph 1011mB
0:00 2093m -2°C -2_10 2cm 99% 10mph 11mph 1012mB
3:00 2003m -2°C -2_10 1cm 97% 10mph 12mph 1013mB
6:00 2268m -2°C -2_10 1cm 98% 10mph 12mph 1014mB
9:00 2484m 0°C 0_9 1cm 94% 9mph 11mph 1014mB
12:00 2605m 4°C 4_8 1cm 88% 8mph 9mph 1015mB
15:00 2616m 4°C 4_8 1cm 99% 8mph 10mph 1016mB
18:00 2615m 4°C 4_7 1cm 94% 7mph 10mph 1018mB
21:00 2017m -3°C -3_9 0cm 12% 9mph 10mph 1022mB
0:00 1942m -3°C -3_9 0cm 6% 9mph 9mph 1024mB
3:00 1926m -4°C -4_10 0cm 6% 10mph 10mph 1024mB
6:00 2554m -4°C -4_8 0cm 3% 8mph 9mph 1023mB
9:00 2858m 2°C 2_4 0cm 0% 4mph 5mph 1022mB
12:00 3039m 8°C 8_3 0cm 21% 3mph 4mph 1021mB
15:00 3134m 9°C 9_5 0cm 93% 5mph 7mph 1021mB
18:00 3114m 9°C 9_6 0cm 53% 6mph 7mph 1022mB
21:00 2563m 1°C 1_9 0cm 79% 9mph 10mph 1025mB
0:00 3125m 1°C 1_9 0cm 88% 9mph 9mph 1025mB
3:00 2577m 0°C 0_9 0cm 96% 9mph 10mph 1024mB
6:00 3211m 0°C 0_8 0cm 96% 8mph 10mph 1024mB
9:00 3204m 5°C 5_6 0cm 96% 6mph 8mph 1023mB
12:00 3321m 10°C 10_6 0cm 97% 6mph 8mph 1023mB
15:00 3339m 10°C 10_7 0cm 99% 7mph 9mph 1022mB
18:00 3369m 10°C 10_7 0cm 97% 7mph 9mph 1023mB
21:00 3365m 3°C 3_9 0cm 99% 9mph 10mph 1024mB
0:00 3472m 2°C 2_9 0cm 98% 9mph 10mph 1025mB
3:00 3338m 1°C 1_9 0cm 96% 9mph 9mph 1025mB
6:00 3459m 1°C 1_6 0cm 77% 6mph 7mph 1025mB
9:00 3335m 6°C 6_3 0cm 0% 3mph 2mph 1025mB
12:00 3374m 10°C 10_3 0cm 0% 3mph 3mph 1024mB
15:00 3505m 11°C 11_3 0cm 2% 3mph 3mph 1023mB
18:00 3605m 11°C 11_1 0cm 11% 1mph 2mph 1024mB
21:00 3568m 5°C 5_4 0cm 74% 4mph 4mph 1027mB
0:00 3388m 5°C 5_4 0cm 86% 4mph 5mph 1027mB
3:00 3683m 5°C 5_2 0cm 98% 2mph 2mph 1027mB
6:00 3788m 5°C 5_3 0cm 93% 3mph 5mph 1026mB
9:00 3841m 6°C 6_2 0cm 22% 2mph 4mph 1025mB
12:00 3759m 13°C 13_3 0cm 12% 3mph 4mph 1024mB
15:00 3800m 13°C 13_2 0cm 2% 2mph 3mph 1022mB
18:00 3845m 13°C 13_1 0cm 5% 1mph 1mph 1023mB
21:00 3875m 4°C 4_2 0cm 41% 2mph 2mph 1025mB
0:00 3824m 4°C 4_4 0cm 66% 4mph 4mph 1025mB
3:00 3724m 5°C 5_4 0cm 94% 4mph 4mph 1024mB
6:00 3776m 5°C 5_2 0cm 77% 2mph 2mph 1023mB
9:00 3818m 7°C 7_3 0cm 13% 3mph 3mph 1022mB
12:00 3739m 13°C 13_4 0cm 9% 4mph 4mph 1020mB
15:00 3821m 13°C 13_3 0cm 21% 3mph 3mph 1018mB
18:00 3836m 13°C 13_2 0cm 25% 2mph 3mph 1019mB
21:00 3819m 5°C 5_3 0cm 13% 3mph 3mph 1021mB
0:00 3780m 4°C 4_3 0cm 28% 3mph 3mph 1021mB
3:00 3744m 4°C 4_4 0cm 34% 4mph 4mph 1020mB
6:00 3802m 3°C 3_1 0cm 32% 1mph 2mph 1020mB
9:00 3864m 8°C 8_3 0cm 9% 3mph 3mph 1018mB
12:00 3777m 14°C 14_4 0cm 8% 4mph 3mph 1017mB
15:00 3857m 14°C 14_3 0cm 10% 3mph 2mph 1016mB
18:00 3821m 14°C 14_2 0cm 10% 2mph 3mph 1016mB
21:00 3807m 6°C 6_4 0cm 61% 4mph 5mph 1018mB
0:00 3814m 4°C 4_4 0cm 35% 4mph 5mph 1019mB
3:00 3789m 3°C 3_5 0cm 8% 5mph 6mph 1019mB
6:00 3751m 3°C 3_3 0cm 24% 3mph 4mph 1018mB
Afternoon 0.994792mm 11.25 3685m 18°C 18_2 0cm 71% 2mph 3mph 1016mB
Morning 1.32812mm 12.75 3496m 9°C 9_1 0cm 100% 1mph 1mph 1017mB
Afternoon 1.52604mm 7.5 3584m 12°C 12_3 0cm 100% 3mph 4mph 1016mB
Morning 0.885417mm 5.375 3468m 8°C 8_3 0cm 98% 3mph 4mph 1016mB
Afternoon 1.8125mm 17.875 3627m 13°C 13_2 0cm 95% 2mph 4mph 1014mB
Morning 2.47917mm 7.75 3403m 8°C 8_4 0cm 99% 4mph 5mph 1016mB
Afternoon 1.35417mm 4.0625 3682m 12°C 12_4 0cm 90% 4mph 6mph 1016mB
Morning 0.229167mm 2.1875 3724m 7°C 7_2 0cm 99% 2mph 3mph 1019mB
Afternoon 0.34375mm 3.875 3856m 16°C 16_7 0cm 73% 7mph 10mph 1016mB
Morning 0.463542mm 3.625 3691m 7°C 7_3 0cm 92% 3mph 5mph 1017mB
Afternoon 0.796875mm 7.125 3914m 15°C 15_3 0cm 96% 3mph 3mph 1013mB
Morning 1.125mm 13.1875 3800m 8°C 8_5 0cm 74% 5mph 8mph 1016mB

16 day outlook at a glance

Forecast issued: 26/05/2019 11:27:50

Chat

Your comments and questions. In a resort? Let us know what it's like!


Characters left 250

For terms and conditions see Readers Comments on the Cookie and privacy policy page.